Total_Precipitation_Accumulation
0.01 0.01 0.01 0.03 0.04 0.05 0.06 0.07 0.08 0.09 0.12 0.15 0.16 0.15 0.16 0.19 0.21 0.22 0.23 0.22 0.18 0.16 0.11 0.08 0.08 0.08 0.06 0.05 0.05 0.05 0.04 0.03 0.04 0.04 0.03 0.01 0.01 0.01 0.01 0.02 0.02 0.02 0.02
0.00 0.00 0.01 0.02 0.02 0.04 0.05 0.06 0.07 0.08 0.09 0.10 0.12 0.17 0.24 0.29 0.33 0.32 0.30 0.28 0.26 0.24 0.19 0.15 0.13 0.12 0.11 0.09 0.08 0.08 0.08 0.07 0.08 0.09 0.10 0.06 0.02 0.01 0.02 0.02 0.03 0.03 0.03
0.00 0.00 0.01 0.01 0.01 0.02 0.04 0.05 0.06 0.07 0.08 0.11 0.16 0.21 0.25 0.25 0.24 0.21 0.20 0.25 0.30 0.31 0.26 0.23 0.22 0.21 0.19 0.17 0.17 0.17 0.16 0.15 0.14 0.15 0.18 0.14 0.07 0.04 0.03 0.03 0.04 0.05 0.04
0.00 0.00 0.00 0.01 0.01 0.01 0.02 0.03 0.03 0.03 0.04 0.07 0.10 0.13 0.15 0.14 0.14 0.18 0.22 0.27 0.29 0.31 0.31 0.30 0.29 0.27 0.26 0.24 0.28 0.32 0.31 0.27 0.20 0.19 0.18 0.20 0.18 0.17 0.11 0.05 0.05 0.06 0.05
0.00 0.00 0.00 0.01 0.00 0.01 0.01 0.01 0.02 0.02 0.03 0.03 0.04 0.08 0.11 0.12 0.14 0.15 0.18 0.21 0.22 0.24 0.28 0.31 0.31 0.28 0.30 0.33 0.37 0.37 0.39 0.37 0.33 0.30 0.30 0.30 0.26 0.23 0.23 0.14 0.08 0.08 0.09
0.00 0.00 0.00 0.00 0.00 0.00 0.00 0.01 0.01 0.01 0.02 0.02 0.02 0.04 0.06 0.09 0.10 0.10 0.12 0.15 0.17 0.17 0.20 0.24 0.27 0.30 0.33 0.36 0.40 0.42 0.46 0.47 0.47 0.44 0.40 0.40 0.37 0.32 0.35 0.33 0.23 0.21 0.19
0.00 0.00 0.00 0.00 0.00 0.00 0.00 0.00 0.00 0.01 0.01 0.01 0.01 0.02 0.04 0.08 0.10 0.10 0.11 0.13 0.13 0.13 0.16 0.20 0.24 0.29 0.34 0.39 0.43 0.44 0.45 0.49 0.51 0.50 0.47 0.46 0.43 0.43 0.48 0.52 0.47 0.40 0.35
0.00 0.00 0.00 0.00 0.00 0.00 0.00 0.00 0.00 0.00 0.01 0.01 0.01 0.01 0.03 0.05 0.06 0.08 0.09 0.10 0.12 0.15 0.19 0.21 0.24 0.27 0.31 0.34 0.37 0.38 0.39 0.42 0.44 0.45 0.46 0.44 0.42 0.42 0.45 0.53 0.63 0.63 0.54
0.00 0.00 0.00 0.00 0.00 0.00 0.00 0.00 0.00 0.01 0.01 0.01 0.01 0.01 0.02 0.03 0.05 0.06 0.07 0.08 0.10 0.12 0.14 0.16 0.19 0.21 0.23 0.25 0.28 0.29 0.29 0.31 0.33 0.34 0.36 0.36 0.35 0.35 0.38 0.44 0.57 0.73 0.72
0.00 0.00 0.00 0.00 0.00 0.00 0.00 0.00 0.00 0.01 0.01 0.02 0.02 0.02 0.02 0.03 0.05 0.05 0.05 0.06 0.07 0.09 0.10 0.12 0.14 0.16 0.17 0.17 0.18 0.19 0.19 0.21 0.22 0.24 0.25 0.27 0.27 0.29 0.33 0.38 0.47 0.59 0.69
0.00 0.00 0.00 0.00 0.00 0.00 0.00 0.00 0.01 0.01 0.01 0.01 0.01 0.02 0.02 0.03 0.03 0.04 0.05 0.06 0.06 0.06 0.07 0.09 0.11 0.11 0.11 0.11 0.12 0.12 0.13 0.15 0.16 0.17 0.19 0.22 0.23 0.26 0.29 0.33 0.38 0.43 0.50
0.00 0.00 0.00 0.00 0.00 0.01 0.01 0.01 0.02 0.02 0.02 0.01 0.01 0.02 0.02 0.02 0.03 0.04 0.05 0.05 0.05 0.05 0.06 0.06 0.06 0.06 0.06 0.07 0.08 0.09 0.11 0.13 0.15 0.16 0.18 0.21 0.23 0.27 0.29 0.31 0.33 0.33 0.34
0.01 0.01 0.01 0.01 0.01 0.02 0.02 0.02 0.02 0.02 0.02 0.02 0.03 0.03 0.03 0.03 0.04 0.06 0.06 0.05 0.05 0.05 0.05 0.04 0.04 0.05 0.05 0.06 0.07 0.09 0.11 0.13 0.16 0.19 0.23 0.25 0.27 0.29 0.29 0.28 0.26 0.24 0.23
0.04 0.03 0.02 0.02 0.02 0.02 0.02 0.02 0.02 0.02 0.03 0.03 0.04 0.04 0.05 0.06 0.06 0.06 0.06 0.06 0.05 0.06 0.06 0.05 0.05 0.06 0.08 0.09 0.11 0.13 0.16 0.19 0.21 0.24 0.27 0.29 0.29 0.28 0.25 0.21 0.19 0.19 0.18
0.05 0.05 0.04 0.04 0.04 0.03 0.03 0.02 0.02 0.02 0.03 0.04 0.05 0.06 0.07 0.06 0.07 0.06 0.06 0.06 0.06 0.06 0.07 0.08 0.09 0.11 0.12 0.16 0.19 0.22 0.26 0.29 0.32 0.32 0.30 0.27 0.24 0.20 0.17 0.15 0.15 0.15 0.17
0.06 0.05 0.04 0.04 0.04 0.04 0.05 0.05 0.04 0.04 0.04 0.06 0.07 0.07 0.07 0.07 0.07 0.07 0.08 0.09 0.10 0.10 0.12 0.15 0.19 0.25 0.29 0.36 0.35 0.32 0.31 0.30 0.27 0.24 0.21 0.19 0.17 0.14 0.13 0.13 0.13 0.18 0.26
0.04 0.03 0.03 0.04 0.03 0.03 0.03 0.03 0.04 0.05 0.05 0.06 0.08 0.08 0.08 0.08 0.08 0.10 0.15 0.18 0.20 0.22 0.26 0.30 0.35 0.38 0.40 0.38 0.29 0.24 0.21 0.22 0.21 0.17 0.13 0.10 0.08 0.07 0.05 0.06 0.11 0.16 0.21
0.03 0.02 0.02 0.02 0.02 0.02 0.02 0.02 0.03 0.04 0.05 0.07 0.10 0.12 0.13 0.17 0.20 0.20 0.25 0.31 0.35 0.37 0.40 0.41 0.43 0.42 0.40 0.34 0.25 0.19 0.15 0.13 0.10 0.08 0.06 0.05 0.04 0.04 0.07 0.13 0.18 0.12 0.08
0.04 0.04 0.03 0.03 0.02 0.03 0.03 0.04 0.05 0.06 0.06 0.08 0.11 0.14 0.17 0.24 0.30 0.31 0.34 0.38 0.43 0.46 0.45 0.42 0.38 0.31 0.25 0.20 0.14 0.10 0.07 0.05 0.04 0.03 0.03 0.05 0.05 0.06 0.19 0.27 0.23 0.10 0.03
0.06 0.06 0.07 0.08 0.09 0.09 0.10 0.11 0.11 0.15 0.17 0.18 0.22 0.26 0.31 0.37 0.40 0.40 0.39 0.38 0.36 0.35 0.31 0.26 0.22 0.17 0.13 0.09 0.06 0.04 0.03 0.03 0.02 0.03 0.03 0.03 0.05 0.14 0.26 0.24 0.19 0.10 0.06
0.11 0.11 0.11 0.13 0.15 0.15 0.16 0.17 0.18 0.24 0.30 0.33 0.35 0.35 0.37 0.38 0.38 0.35 0.32 0.28 0.23 0.19 0.14 0.11 0.09 0.06 0.04 0.03 0.02 0.02 0.03 0.05 0.07 0.07 0.03 0.02 0.10 0.21 0.22 0.16 0.08 0.09 0.16
0.09 0.11 0.13 0.15 0.17 0.20 0.24 0.25 0.28 0.31 0.32 0.32 0.32 0.31 0.30 0.27 0.26 0.24 0.20 0.15 0.12 0.08 0.06 0.04 0.02 0.01 0.01 0.00 0.00 0.02 0.06 0.11 0.11 0.07 0.04 0.07 0.16 0.15 0.09 0.04 0.04 0.11 0.10
0.08 0.11 0.14 0.17 0.19 0.21 0.24 0.26 0.26 0.25 0.25 0.24 0.23 0.20 0.16 0.14 0.13 0.10 0.08 0.06 0.05 0.03 0.02 0.01 0.01 0.00 0.00 0.00 0.00 0.02 0.08 0.12 0.10 0.08 0.12 0.14 0.09 0.04 0.01 0.01 0.03 0.04 0.02
0.05 0.06 0.08 0.10 0.11 0.12 0.15 0.16 0.15 0.13 0.13 0.12 0.12 0.09 0.06 0.05 0.04 0.03 0.02 0.01 0.01 0.01 0.00 0.00 0.01 0.01 0.00 0.00 0.01 0.04 0.07 0.08 0.10 0.13 0.13 0.06 0.01 0.00 0.00 0.01 0.00 0.01 0.02
0.03 0.03 0.03 0.04 0.05 0.05 0.06 0.06 0.06 0.05 0.04 0.03 0.03 0.02 0.02 0.01 0.01 0.01 0.01 0.00 0.00 0.00 0.00 0.01 0.01 0.02 0.02 0.02 0.08 0.11 0.10 0.13 0.16 0.14 0.04 0.00 0.00 0.01 0.01 0.00 0.00 0.01 0.02
0.03 0.02 0.02 0.02 0.02 0.02 0.02 0.02 0.02 0.01 0.01 0.01 0.01 0.00 0.00 0.00 0.00 0.00 0.00 0.01 0.00 0.00 0.00 0.01 0.02 0.02 0.03 0.06 0.08 0.10 0.14 0.16 0.12 0.05 0.01 0.01 0.02 0.02 0.02 0.02 0.03 0.02 0.04